Location: Quedlinburg
(51.7921°N, 11.1414°E)
Time: 07:40:11
(UTC+02:00)

SO-50 - Pass Details

Date: 14 March 2026
Orbit: 567 x 673 km, 64.6° (Epoch: 13 April)

Event Time Altitude Azimuth Distance (km) Brightness Sun altitude
Rises 20:40:37 0° 258° (WSW) 2,965 ? -22.2°
Reaches altitude 10° 20:43:08 10° 270° (W) 2,072 ? -22.5°
Maximum altitude 20:47:19 30° 332° (NNW) 1,191 ? -23.1°
Drops below altitude 10° 20:51:34 10° 34° (NNE) 2,111 ? -23.6°
Enters shadow 20:52:13 - 37° (NE) 2,337 ? -23.7°
